Notices

What's New in latest Release from April 7th, 2021:

- Updated Glossary, including Speed of Maximum Gust, and Total Hourly Precipitation

- Updated national and regional climate services offices contacts and prices information

- Addition of station inventory lists for 1981-2010, 1971-2000, and 1961-1990 Normals.

If you haven't already, please take our survey and provide feedback about our website: https://eccc.sondage-survey.ca/f/LanguageSelection.aspx?s=442ca660-fcf1-47c0-95a9-59707d6fd709

Hourly Data Report for August 17, 2016

TORONTO CITY
ONTARIO

43°40'00.000" N
79°24'00.000" W
112.50 m
6158355
71508
XTO

Download Data

Hourly Data (August 2016)
Hourly Data Report for August 17, 2016
TIME
LST
Temp Definition
°C
Dew Point Definition
°C
Rel Hum Definition
%
Precip. Amount Definition
mm

Wind Dir Definition
10's deg

Wind Spd Definition
km/h
Visibility Definition
km
Stn Press Definition
kPa
Hmdx Definition


Wind Chill Definition


Weather Definition


00:00 19.8 15.5 76 0.0 LegendMM LegendMM   100.39     LegendNANA
01:00 19.2 15.5 79 0.0 LegendMM LegendMM   100.42     LegendNANA
02:00 18.8 15.4 81 0.0 LegendMM LegendMM   100.46     LegendNANA
03:00 18.5 15.1 81 0.0 LegendMM LegendMM   100.46     LegendNANA
04:00
05:00
06:00
07:00
08:00 20.5 15.7 74 0.0 LegendMM LegendMM   100.57 25   LegendNANA
09:00 21.9 15.8 68 0.0 LegendMM LegendMM   100.60 26   LegendNANA
10:00 20.9 15.2 70 0.0 LegendMM LegendMM   100.61 25   LegendNANA
11:00 22.8 15.9 65 0.0 LegendMM LegendMM   100.59 27   LegendNANA
12:00 23.0 16.2 66 0.0 LegendMM LegendMM   100.53 28   LegendNANA
13:00 24.0 16.5 63 0.0 LegendMM LegendMM   100.46 29   LegendNANA
14:00 25.1 16.6 59 0.0 LegendMM LegendMM   100.38 30   LegendNANA
15:00 25.5 16.4 57 0.0 LegendMM LegendMM   100.29 30   LegendNANA
16:00 26.2 17.5 59 0.0 LegendMM LegendMM   100.21 32   LegendNANA
17:00 25.7 16.8 58 0.0 LegendMM LegendMM   100.21 31   LegendNANA
18:00 24.5 17.8 66 0.0 LegendMM LegendMM   100.18 30   LegendNANA
19:00 24.3 17.2 64 0.0 LegendMM LegendMM   100.18 30   LegendNANA
20:00 23.7 17.5 68 0.0 LegendMM LegendMM   100.22 29   LegendNANA
21:00 22.5 18.1 76 0.0 LegendMM LegendMM   100.19 29   LegendNANA
22:00 22.2 18.7 81 0.0 LegendMM LegendMM   100.16 29   LegendNANA
23:00 22.3 18.9 81 0.0 LegendMM LegendMM   100.20 29   LegendNANA

Notes on Data Quality.

Legend

  • E = Estimated
  • M = Missing
  • NA = Not Available*
  • [empty] = Indicates an unobserved value
Date modified: